Theta_e
353 353 352 353 353 353 352 351 350 348 346 346 348 348 348 346 343 342 339 336 335 336 336 336 335 335 335 335 336 338 339 341 343 344 346 348 348 348 348 348 348 348 347 348 348 347 347 346 344 343 343 344 346 346 346 346 346 346 347 348 349 350 349
352 352 352 352 352 352 351 350 349 348 347 347 346 345 343 339 336 336 335 329 324 324 323 323 323 322 322 322 322 323 324 327 330 333 336 340 342 343 345 347 348 348 348 347 347 348 347 346 344 343 343 344 346 347 347 347 346 346 347 349 350 350 348
352 352 352 351 351 351 350 349 347 345 344 345 344 339 333 329 326 325 326 323 319 320 320 319 319 319 319 319 318 318 318 318 320 321 324 326 329 332 335 339 342 345 347 348 348 348 348 347 346 345 343 344 346 347 347 347 346 346 347 348 350 349 347
352 352 351 350 350 349 347 345 342 340 340 341 340 335 327 325 326 324 323 323 322 322 322 322 322 322 322 322 321 320 319 318 317 317 318 319 320 322 325 328 332 336 340 343 344 345 347 347 346 346 345 346 347 347 347 347 346 346 346 347 348 347 346
352 352 351 349 348 346 344 341 339 338 338 337 337 335 330 329 332 331 327 324 324 324 324 324 325 326 325 325 325 325 323 322 320 318 317 317 318 319 320 322 324 326 330 333 335 338 342 345 346 347 347 346 347 347 347 348 347 347 346 346 347 347 346
351 351 350 348 344 342 341 339 338 337 335 335 335 334 333 332 333 335 334 331 328 326 326 326 326 326 326 326 327 326 326 326 325 323 321 318 318 321 322 321 321 323 324 327 328 329 332 337 341 344 346 347 347 347 348 349 349 348 347 347 347 346 346
351 351 349 345 341 339 339 339 339 338 334 333 333 333 333 333 332 334 336 337 335 331 330 330 328 327 327 327 326 326 326 326 326 327 325 320 318 320 322 322 322 322 322 324 325 325 327 329 332 336 341 345 346 347 347 348 349 349 348 347 347 347 347
351 350 347 344 339 337 339 339 340 340 339 336 335 334 333 333 334 334 335 337 337 335 334 334 331 328 327 327 327 327 326 326 325 326 325 322 319 318 319 321 322 322 322 323 323 323 325 325 325 325 331 338 341 344 346 346 347 348 348 348 348 347 347
350 349 346 343 339 338 339 339 339 340 340 339 338 338 336 336 336 337 337 337 337 337 336 335 333 330 327 327 328 328 326 327 326 324 324 323 320 318 318 319 320 321 322 323 323 324 324 323 322 323 326 331 335 338 342 345 346 347 348 348 349 348 348
350 349 347 344 341 340 338 339 340 340 340 340 338 338 338 337 337 338 339 339 338 337 336 334 333 330 326 327 329 328 326 326 324 323 325 325 322 319 318 319 321 322 323 324 325 324 323 323 322 323 324 327 329 331 334 338 342 345 347 348 349 349 349
348 347 347 345 341 341 341 341 342 341 341 341 339 338 338 337 338 339 339 339 338 336 334 333 332 329 326 329 332 331 329 329 326 324 325 329 327 322 319 320 323 324 325 326 326 324 323 323 323 323 325 325 326 326 327 331 336 341 344 346 347 349 349
346 346 346 345 342 342 342 342 341 341 341 342 341 340 338 336 336 338 339 338 337 334 332 331 331 329 328 332 334 334 333 332 330 328 326 327 328 325 322 322 324 324 324 325 327 328 327 325 324 325 327 327 327 326 326 328 332 336 340 343 345 346 348
345 346 346 344 343 342 342 341 340 340 341 341 341 341 338 336 335 336 337 336 334 332 329 326 328 330 331 333 334 333 334 332 331 331 329 327 327 326 325 326 326 326 325 325 326 328 328 327 327 327 328 328 328 328 328 329 330 331 335 340 344 346 348
343 344 344 344 342 341 342 341 340 340 341 341 341 339 337 335 335 335 335 334 332 330 327 325 326 329 331 333 333 333 332 330 329 330 330 329 328 328 328 328 327 327 327 327 326 326 327 328 329 328 328 329 329 329 329 329 330 331 332 336 341 344 345
340 341 342 342 341 341 341 340 341 342 341 341 340 338 336 335 335 334 334 331 327 325 325 324 325 327 328 330 331 330 329 329 329 330 331 331 330 330 330 329 329 328 328 328 328 327 327 328 329 328 327 327 328 329 329 328 331 333 331 331 334 336 337
339 339 340 341 341 341 341 341 342 342 341 339 337 336 335 335 333 332 331 328 326 325 325 325 326 326 326 327 328 328 328 328 329 330 330 331 331 331 331 330 330 329 329 329 328 327 326 326 327 329 327 324 325 327 328 330 333 333 330 328 328 329 331
338 338 339 340 340 339 339 339 339 338 337 336 334 334 333 331 330 331 330 328 327 327 326 325 326 325 325 325 325 326 328 329 329 329 330 330 330 330 331 330 329 329 329 328 326 325 325 324 326 328 326 323 323 324 326 329 332 331 328 328 327 328 330
336 336 336 336 336 336 336 336 336 335 334 333 333 333 331 329 328 329 328 326 326 326 324 325 325 324 325 325 326 327 329 329 329 330 330 330 329 329 330 329 329 328 329 327 325 324 323 324 325 326 326 324 323 323 324 326 328 328 327 328 328 328 329
334 334 335 335 334 334 335 335 334 333 333 333 333 332 330 328 326 325 325 324 325 325 324 324 324 325 326 327 327 328 329 329 329 329 329 330 329 329 329 329 329 328 328 327 326 324 323 323 324 325 326 326 326 325 325 325 327 327 327 327 327 328 329
334 335 335 334 333 333 334 334 334 334 334 333 331 329 328 326 325 325 324 324 324 324 324 324 326 327 327 328 328 328 328 328 329 329 329 329 329 328 329 329 329 328 327 327 326 326 326 325 325 327 328 328 328 328 326 327 328 328 326 326 326 328 328
333 333 333 333 333 334 333 333 334 333 332 330 328 326 326 325 325 323 322 323 324 326 326 326 327 327 327 327 327 327 327 327 327 328 328 328 328 328 329 328 328 328 327 327 327 327 327 327 326 328 329 329 330 329 328 328 329 328 326 325 326 327 328
332 331 331 331 332 333 333 333 332 331 329 328 327 325 324 323 322 321 322 324 326 327 327 327 327 327 326 325 325 325 324 324 325 327 327 327 328 328 328 328 327 327 326 326 326 327 327 327 327 327 328 330 329 329 329 329 329 328 326 325 325 326 327
330 330 331 331 331 332 332 332 332 329 327 326 324 323 322 321 321 322 325 326 327 326 326 325 324 324 323 322 321 320 320 321 323 325 326 327 327 327 327 326 326 326 325 325 326 326 326 327 328 328 328 329 329 329 330 330 329 329 327 326 325 325 326
330 329 330 330 331 332 331 331 331 329 327 325 323 322 322 321 322 324 326 325 325 324 323 323 322 322 321 320 319 319 319 320 322 324 325 326 326 325 325 325 325 325 325 325 325 326 326 327 328 329 329 329 329 329 329 329 329 329 328 328 327 326 327
329 329 329 330 330 330 330 331 329 328 329 327 324 323 323 321 322 323 322 322 322 322 322 321 321 321 320 320 321 321 322 322 322 323 324 324 324 324 324 324 324 324 324 325 325 326 326 327 328 328 329 329 329 329 329 329 330 330 330 329 328 327 327
329 329 329 330 329 328 329 330 328 328 329 327 324 323 322 320 319 318 319 320 321 321 320 319 319 319 319 320 321 322 322 322 322 322 323 323 323 323 323 323 323 324 324 324 325 325 326 326 327 327 328 328 329 329 329 329 330 330 330 329 329 328 328
328 328 328 328 328 325 326 329 328 327 328 326 323 321 319 318 317 316 316 318 319 319 318 318 318 319 319 320 321 321 321 321 321 322 323 323 322 322 322 323 324 325 325 324 324 324 324 326 326 327 327 327 328 328 328 328 328 329 330 329 328 328 328
327 327 327 328 328 326 326 328 327 326 326 324 322 319 316 315 314 312 313 317 318 318 318 318 318 319 319 320 320 320 320 321 321 321 322 321 320 321 323 323 324 324 324 324 325 325 325 325 326 326 327 326 326 326 326 326 326 327 328 328 328 328 328
327 327 327 327 327 326 326 327 326 324 324 323 320 315 312 311 309 308 312 315 314 315 317 318 317 318 318 319 319 319 320 321 320 320 320 320 319 320 322 323 323 323 323 324 324 324 324 324 324 324 324 324 324 324 324 323 324 325 325 326 327 327 327
328 327 327 327 327 325 325 325 324 323 322 321 317 311 308 308 306 305 309 310 308 312 317 318 317 317 318 318 318 318 320 320 319 319 319 319 319 320 321 322 322 322 322 322 322 322 322 322 322 322 322 322 322 322 322 322 322 323 324 324 324 325 325
326 326 326 326 325 324 323 324 323 322 321 320 316 312 310 309 307 306 307 305 305 311 316 316 316 317 317 317 317 317 318 319 318 318 318 318 318 318 319 320 321 322 322 321 321 320 320 320 320 319 319 319 319 319 320 320 321 322 322 323 323 324 324
326 326 325 325 324 322 322 321 320 320 320 319 317 315 314 313 311 311 309 306 307 312 315 315 315 316 315 316 316 316 317 318 318 318 318 317 317 318 318 319 320 321 321 320 318 318 318 318 318 317 316 317 317 317 318 318 319 320 321 322 322 322 323
325 325 324 323 322 321 319 319 318 317 318 317 316 316 316 315 314 312 311 310 311 313 314 315 315 315 315 315 316 316 316 316 317 318 318 317 317 317 318 318 318 319 320 319 317 317 317 316 315 314 314 314 315 316 316 316 317 319 320 321 321 321 321
324 323 323 321 320 319 318 317 317 316 317 316 316 316 316 315 313 311 310 310 311 314 315 315 315 315 315 315 315 316 315 315 316 317 317 317 317 317 318 318 317 318 318 318 316 315 315 314 314 313 312 312 313 313 314 315 316 317 318 319 319 319 320
322 322 321 319 318 318 318 317 318 318 317 316 316 316 315 313 311 310 309 310 312 315 315 314 314 315 315 314 315 315 314 314 316 317 317 317 317 317 317 317 317 317 317 316 315 314 314 313 313 312 312 312 311 311 312 313 315 316 317 317 317 318 319
321 319 318 317 317 317 317 317 317 318 317 316 317 316 312 310 309 309 309 312 314 315 314 314 314 315 314 314 315 314 314 314 315 316 316 316 316 317 317 317 316 316 316 315 314 313 313 313 312 311 312 312 312 312 311 312 314 316 316 316 317 318 318
318 317 316 316 316 317 317 317 317 317 317 317 317 314 309 308 310 310 311 314 315 314 314 314 314 314 314 314 314 313 313 314 315 315 315 315 316 316 316 316 316 316 315 314 313 313 312 313 312 311 311 312 313 314 313 313 314 315 315 316 317 317 318
317 316 315 316 316 317 317 317 317 316 316 316 315 311 307 308 311 311 313 315 314 314 314 314 313 313 314 313 312 312 313 313 314 314 314 314 315 315 315 315 315 315 315 314 313 312 312 312 313 312 311 311 312 313 313 314 314 314 315 315 316 316 317
Wind_Speed
10 10 10 10 11 11 10 10 10 11 12 12 11 10 10 12 12 13 14 15 16 16 16 16 17 17 17 17 17 17 16 16 15 14 12 10 10 10 10 10 10 10 10 9 9 9 9 10 12 12 12 11 10 11 12 14 15 14 14 16 16 17 17
10 10 9 10 11 12 11 11 11 12 12 12 11 11 11 13 13 14 15 16 16 17 17 17 18 18 19 19 19 18 18 18 17 17 15 13 12 12 11 10 10 10 10 10 10 10 10 11 11 12 11 10 10 11 12 13 15 14 14 15 17 18 19
10 10 10 10 11 12 12 11 11 12 12 11 11 12 13 15 15 16 16 17 18 18 19 19 20 20 21 20 20 20 19 19 18 17 17 16 15 14 13 12 11 10 10 10 11 11 11 11 11 11 11 10 9 10 12 13 14 14 14 15 17 18 19
10 11 11 12 13 13 12 12 12 12 12 11 12 12 14 15 16 16 17 17 18 19 19 20 20 21 22 22 22 22 21 20 19 18 17 17 17 16 16 15 14 12 11 11 11 11 11 11 11 11 11 10 10 10 12 12 13 13 14 15 16 18 18
10 11 12 12 12 12 12 13 12 12 12 12 12 13 14 14 14 14 15 16 17 17 17 18 19 20 21 22 22 22 22 21 21 20 19 19 19 18 17 16 16 15 14 12 11 11 11 11 11 12 12 11 11 11 12 12 13 13 13 14 15 16 16
10 11 11 12 12 13 14 13 13 13 13 12 12 12 12 12 12 11 12 13 14 15 15 16 17 18 19 20 20 21 21 21 21 21 20 20 19 18 17 17 16 16 16 15 14 13 12 11 11 12 12 12 12 12 12 12 12 13 14 14 15 15 15
11 11 12 12 12 13 14 14 13 13 12 13 12 11 10 9 9 10 9 9 10 11 12 13 14 15 16 17 18 19 20 21 21 21 21 20 18 17 17 17 17 16 16 16 15 15 14 12 12 12 12 12 13 13 14 13 13 13 14 14 14 14 15
11 12 11 11 12 13 14 13 12 11 10 10 10 9 8 7 7 7 7 7 7 8 10 10 11 14 15 16 17 18 19 20 21 21 21 21 18 17 16 16 17 17 17 17 16 16 15 14 14 13 12 12 13 14 14 15 14 14 14 14 14 14 14
12 11 11 11 12 12 12 12 11 11 10 8 7 7 6 5 5 5 6 6 6 8 9 9 12 15 17 18 17 17 19 19 20 21 21 20 18 16 15 15 15 16 17 17 17 17 16 17 17 16 14 13 13 14 14 15 15 14 14 15 15 15 15
11 10 10 10 11 11 10 10 10 9 8 7 6 5 4 3 4 4 5 5 6 7 8 10 13 15 18 18 16 17 18 18 20 21 20 19 18 16 15 15 15 15 16 17 17 18 18 18 18 18 16 14 13 14 14 15 15 14 14 15 15 15 15
9 9 10 9 9 9 8 8 7 7 6 5 5 4 3 3 3 4 5 5 5 6 8 11 12 15 18 16 14 15 17 17 19 20 19 17 17 16 16 15 15 15 15 15 17 18 18 19 19 18 17 17 16 15 15 15 15 15 14 14 15 15 16
8 8 8 8 7 7 6 5 5 4 4 3 3 4 4 5 4 4 5 5 5 8 12 13 13 16 17 15 14 14 15 16 17 18 18 17 17 18 17 16 15 16 16 15 16 17 17 18 19 19 17 17 17 17 16 15 15 16 16 15 14 15 16
8 6 6 6 5 4 3 2 2 2 2 2 3 3 5 5 5 5 5 6 8 11 14 16 16 17 16 15 15 15 15 17 17 17 17 17 17 18 18 17 16 16 16 16 16 16 16 17 18 19 19 18 17 17 17 16 15 15 17 16 14 13 15
6 4 3 3 2 2 1 1 2 2 2 2 2 3 5 5 6 6 6 7 10 12 15 18 18 18 17 16 16 16 17 18 18 17 16 16 17 17 18 18 17 17 16 16 16 17 17 17 17 18 19 19 18 17 17 17 16 14 16 16 14 13 14
3 3 2 2 1 1 2 3 3 3 3 2 2 4 6 6 6 7 8 9 12 14 17 19 19 19 20 19 18 18 19 19 18 17 16 16 16 16 17 18 18 18 18 17 17 17 18 18 17 18 18 19 19 19 17 17 15 14 15 17 17 16 17
3 3 2 2 2 2 2 3 3 3 3 4 4 5 6 6 7 9 10 12 14 16 18 19 20 21 22 22 21 20 20 19 18 18 17 17 16 16 17 17 18 18 19 19 19 19 19 19 18 18 19 20 20 19 19 17 15 15 16 17 18 18 18
7 6 5 5 5 5 4 4 4 5 5 5 6 6 6 8 10 10 12 14 16 18 20 21 22 23 23 23 23 22 20 19 18 18 18 18 18 17 17 18 18 19 19 20 21 20 20 20 19 19 21 22 21 20 19 18 16 17 18 18 18 18 18
7 8 8 8 8 8 7 6 6 6 6 6 6 7 9 11 12 13 15 18 19 21 23 23 23 24 23 23 22 21 19 19 19 19 18 18 18 18 18 18 19 19 19 20 21 21 21 20 20 20 21 22 22 21 20 19 19 19 19 18 18 18 18
8 9 9 8 8 7 6 6 6 6 6 6 7 8 11 13 15 16 18 21 22 23 24 24 24 23 22 21 21 20 20 20 20 20 20 19 19 19 18 18 18 19 19 20 21 22 22 21 21 21 21 21 21 21 21 20 19 19 19 19 18 18 19
7 7 7 8 8 6 5 5 6 6 6 7 8 10 12 15 17 18 20 22 23 23 24 24 23 21 20 20 20 20 21 21 21 21 21 20 20 19 19 18 18 19 20 21 22 22 22 22 22 21 20 20 20 21 22 21 19 19 19 18 19 19 19
7 7 7 8 7 6 5 6 6 6 7 9 11 13 15 17 19 21 22 23 22 22 22 21 21 20 21 21 21 22 22 22 22 22 22 22 22 20 20 20 20 20 20 21 21 21 22 23 23 22 20 19 19 20 21 21 21 21 19 18 18 19 19
7 7 7 8 7 6 6 6 7 8 10 11 14 16 18 20 21 22 22 21 20 20 20 20 20 21 22 22 23 23 23 23 22 23 23 23 22 21 21 21 21 21 21 21 21 21 22 23 24 23 21 19 19 19 19 19 20 22 21 18 18 19 19
7 7 8 8 7 6 6 7 8 11 13 15 17 19 20 20 22 21 20 19 19 20 20 21 22 23 24 24 25 25 24 23 22 22 23 22 22 21 22 22 22 21 21 22 21 21 22 22 22 22 21 20 19 19 19 19 20 22 22 19 17 18 18
7 8 8 8 8 7 8 8 9 12 15 17 18 19 20 21 21 20 19 19 20 21 21 22 22 23 23 23 24 24 23 22 20 20 22 22 22 22 22 22 22 21 21 21 21 21 21 21 20 20 20 20 19 18 19 19 19 20 21 20 18 18 17
8 9 8 8 9 9 10 10 11 12 13 16 18 19 21 21 20 19 19 20 20 20 20 20 21 20 21 22 22 22 21 20 19 19 21 21 21 20 20 21 22 21 21 20 20 20 20 19 19 19 19 18 18 17 17 17 17 17 19 20 20 18 17
9 10 9 9 10 11 11 11 13 13 12 15 18 19 20 21 21 20 19 18 18 18 18 19 20 19 20 20 20 19 19 19 19 19 19 19 19 18 19 20 21 20 20 20 19 18 19 19 19 18 18 18 17 17 16 16 16 16 17 18 18 18 17
9 10 10 10 12 13 12 11 13 13 12 14 17 18 19 21 21 20 19 17 17 17 17 18 18 18 19 19 18 18 18 18 18 18 18 18 19 19 19 18 18 18 18 19 19 19 20 19 17 17 18 18 17 17 18 17 16 16 16 16 17 17 17
9 9 10 11 12 13 13 11 12 13 12 13 16 18 19 19 19 18 17 16 16 16 16 16 16 16 18 18 18 18 17 16 17 17 17 18 20 20 18 17 17 16 16 17 18 18 19 18 17 16 16 17 16 17 18 18 17 17 16 15 15 15 14
9 9 10 10 11 12 13 12 12 13 12 13 16 18 18 17 16 17 17 17 17 16 15 15 16 16 17 17 18 18 16 16 18 18 18 20 20 19 18 17 17 17 16 16 17 17 17 17 18 17 17 17 18 17 18 18 18 18 18 17 16 16 16
9 9 10 10 10 12 12 11 12 13 12 12 15 17 16 15 16 17 17 19 20 17 15 15 16 17 17 17 17 17 15 16 18 19 19 19 19 19 18 17 17 17 17 16 17 18 18 17 18 18 18 18 18 18 19 20 19 19 20 20 20 20 20
8 9 9 9 10 11 12 11 12 12 11 11 13 15 15 15 17 19 20 22 22 18 16 16 16 17 18 18 17 17 15 16 17 17 17 17 17 18 18 18 17 17 17 17 17 18 19 18 17 18 18 19 19 19 20 22 22 21 22 23 23 22 21
8 9 9 9 10 11 11 11 11 11 11 11 12 13 14 15 17 19 21 23 22 18 16 16 16 17 18 18 18 17 16 16 16 16 16 16 17 16 17 17 16 15 16 18 19 18 17 16 16 18 20 21 21 22 23 23 24 25 26 26 26 24 21
9 10 10 11 11 11 11 11 11 11 11 11 11 12 13 15 17 18 19 20 19 16 15 16 17 18 18 18 17 17 17 17 16 15 15 16 16 15 14 14 15 15 17 19 20 18 16 17 19 22 24 24 22 22 22 23 24 27 29 29 29 28 26
10 10 10 11 11 11 11 11 11 12 12 11 12 13 14 16 17 17 17 17 16 15 14 15 17 18 18 17 16 16 17 17 15 14 14 14 15 14 13 14 15 16 16 18 19 19 17 20 23 24 24 23 21 20 21 22 24 27 29 29 30 30 28
10 10 9 9 9 10 10 11 11 12 12 12 12 13 15 16 16 16 16 15 14 13 14 16 17 17 17 17 16 16 17 17 15 14 13 13 13 12 12 13 14 15 15 16 19 19 18 19 22 22 22 22 20 19 20 22 24 26 27 27 26 25 24
9 8 8 8 9 10 10 10 10 11 11 12 12 14 16 16 16 15 15 14 13 13 14 16 18 18 17 16 15 16 16 16 16 15 13 13 13 12 12 13 13 13 16 18 18 17 17 19 19 19 19 20 19 18 19 20 23 24 23 22 19 18 19
7 7 7 9 10 11 11 11 11 11 11 12 13 15 16 16 15 15 14 13 13 14 14 16 18 18 17 16 16 16 16 15 15 15 14 12 12 12 13 13 12 12 15 18 18 16 16 18 17 15 15 18 18 17 17 18 19 20 20 19 18 17 17
6 7 8 9 11 12 12 12 11 11 12 12 14 16 17 16 16 15 14 13 14 15 15 15 17 18 17 16 15 15 14 14 15 15 14 13 13 13 12 13 13 12 14 16 17 16 17 18 17 14 14 16 17 17 18 18 18 19 20 19 18 17 16
Wind_Direction
126 118 106 98 96 94 89 86 83 77 73 71 68 62 61 60 57 55 54 51 49 46 43 42 41 40 39 38 35 31 27 24 21 18 13 3 354 349 344 338 334 332 330 327 321 313 307 303 304 308 309 305 297 288 278 272 272 267 261 263 261 256 255
130 120 109 104 102 98 94 91 86 81 77 76 73 70 67 65 63 61 58 55 54 53 51 49 46 45 42 38 35 30 26 23 20 17 14 7 2 357 351 346 339 333 329 323 318 314 310 309 310 311 311 307 299 292 286 278 273 268 262 261 261 260 259
133 122 114 112 107 103 100 95 89 84 81 78 75 72 72 72 70 69 66 62 60 58 56 54 52 49 46 42 37 32 27 21 17 12 9 5 1 358 355 352 346 340 334 328 323 317 312 313 312 309 309 307 297 290 289 285 277 270 264 261 261 262 261
132 123 119 115 110 107 105 99 94 89 84 84 83 80 79 77 73 68 65 62 58 55 53 52 50 48 45 42 38 34 30 22 16 10 5 2 359 356 354 351 347 343 338 330 324 322 317 315 313 308 308 307 299 293 291 289 284 274 266 263 265 266 264
131 124 120 116 113 112 108 103 99 94 91 89 88 86 83 80 76 69 60 56 52 50 48 46 46 43 40 38 35 31 28 23 18 11 4 359 356 356 353 348 344 342 339 333 328 328 323 317 314 309 307 305 300 296 294 293 294 287 276 267 267 271 270
137 128 122 118 117 114 111 108 103 100 98 97 96 91 87 81 76 71 60 51 47 44 43 40 38 36 33 32 29 26 23 19 16 11 5 358 353 351 349 346 345 342 339 336 333 331 327 322 319 313 308 304 298 294 291 288 288 289 284 274 267 269 273
140 130 124 120 120 117 114 112 108 104 100 98 98 94 90 82 72 70 64 53 46 40 38 34 29 28 26 24 21 19 17 14 11 8 3 357 350 345 343 341 342 342 340 338 335 332 330 327 323 318 313 308 301 296 291 285 282 282 283 279 273 270 269
135 128 126 123 122 119 116 113 111 109 103 99 98 93 88 79 66 60 52 47 40 32 32 26 18 15 14 14 12 9 8 7 5 2 358 354 345 339 337 335 335 336 338 338 335 332 330 327 324 322 319 313 307 304 299 294 288 284 281 281 279 275 270
130 126 125 121 119 118 116 114 111 109 107 101 96 91 84 71 60 49 36 31 24 18 17 11 5 3 2 3 3 360 359 358 355 354 353 350 341 331 328 329 329 329 331 331 331 330 326 324 324 324 321 316 311 309 307 303 296 288 282 279 278 277 272
127 127 123 116 115 116 116 115 113 108 104 99 90 86 76 54 41 31 23 20 16 11 4 359 357 355 356 357 353 352 353 352 350 349 346 344 340 331 323 323 324 325 325 324 324 324 323 322 322 322 321 317 312 309 308 307 303 296 286 279 277 276 274
125 124 121 115 111 115 116 114 114 108 101 93 79 70 52 30 18 8 8 14 14 6 357 353 350 348 352 353 345 344 345 345 347 347 344 339 336 332 326 323 322 323 323 323 320 319 320 319 319 319 319 317 314 311 308 306 304 301 295 286 278 273 271
117 114 115 114 113 116 113 111 110 103 96 76 55 44 20 11 10 5 8 14 7 358 354 351 348 347 350 348 340 338 339 338 339 341 341 338 332 330 329 326 323 322 321 321 319 317 316 315 316 317 315 314 313 311 309 306 302 301 301 297 290 281 274
104 105 108 114 121 116 103 101 85 74 78 54 30 13 4 9 20 21 19 14 2 356 353 350 349 347 347 345 341 338 336 336 337 336 335 335 331 329 328 327 326 324 321 319 317 316 314 313 314 315 313 312 312 310 309 307 303 301 300 299 297 291 283
96 98 103 107 114 102 35 323 341 360 8 14 3 3 17 30 34 27 17 7 359 355 352 350 349 347 344 341 340 338 337 337 338 335 333 331 329 327 326 325 325 324 323 321 318 316 316 313 312 311 310 310 310 309 307 304 303 302 297 295 297 293 288
95 92 93 72 24 330 308 310 322 331 344 9 19 29 37 38 29 17 6 356 351 349 348 348 347 345 341 339 338 337 337 336 335 332 329 327 325 324 323 322 322 322 321 320 318 316 315 314 312 310 308 307 306 306 305 303 301 297 292 292 295 295 295
35 35 35 29 5 346 337 338 352 6 23 41 45 42 38 24 9 0 352 348 345 344 343 343 342 341 339 337 335 334 333 333 331 328 325 323 321 320 320 319 318 318 317 316 316 314 313 313 312 309 307 305 304 303 303 302 299 294 293 293 291 291 293
38 38 46 52 54 53 46 45 51 54 53 50 42 31 16 3 355 349 346 343 341 339 338 339 339 337 335 333 331 330 329 327 325 323 321 320 319 318 317 316 316 315 314 314 314 314 314 313 310 306 304 304 303 301 301 300 297 295 296 295 292 289 287
55 59 64 65 63 58 56 59 60 57 49 36 24 9 357 353 350 346 342 339 337 335 334 334 334 332 330 328 327 327 325 323 322 320 319 318 317 317 316 315 314 314 313 313 314 314 314 312 309 305 303 303 303 301 300 298 296 296 296 296 294 290 286
62 61 56 49 44 38 41 49 43 35 31 20 7 357 351 347 343 340 337 334 332 331 329 329 329 328 327 326 325 325 323 321 320 319 318 317 316 315 314 313 313 313 312 312 313 313 312 311 310 307 305 304 302 301 299 298 296 295 295 296 294 291 288
42 35 25 14 10 8 17 26 19 16 14 1 351 347 342 339 336 333 331 328 327 326 326 327 327 326 324 323 323 322 320 320 319 317 316 315 314 314 313 311 310 312 313 313 312 312 312 311 311 309 308 306 304 303 303 302 300 296 294 295 294 290 287
20 15 9 5 6 8 13 11 5 0 352 344 342 338 335 332 329 327 326 326 326 326 326 326 325 323 322 321 320 319 319 318 317 315 314 313 313 313 312 310 310 311 313 312 311 310 310 310 310 310 309 307 305 304 305 305 303 301 300 298 295 291 289
20 15 10 9 11 14 9 360 352 346 340 337 333 329 327 325 323 325 327 327 328 328 327 325 324 322 320 320 320 319 319 318 316 315 314 313 313 312 313 313 312 312 312 312 310 308 308 308 308 308 308 307 305 304 304 304 303 303 304 304 300 294 291
20 12 10 8 7 9 3 358 350 338 332 330 326 324 323 324 327 331 331 331 330 327 326 324 323 322 321 322 322 321 319 319 317 315 313 313 313 313 313 312 310 310 311 311 309 306 306 306 305 305 307 306 305 304 302 302 304 304 305 308 306 300 294
13 8 10 7 5 4 358 355 352 340 331 327 327 328 329 332 336 337 334 333 330 328 328 326 325 326 325 325 326 325 323 322 319 314 311 311 311 310 310 310 308 309 310 309 308 305 303 303 302 302 305 306 306 305 302 303 307 307 308 311 311 306 300
1 359 2 3 1 356 351 347 345 346 342 334 333 335 335 336 341 340 336 334 332 332 333 331 332 332 330 329 331 330 328 325 320 313 309 308 309 308 308 308 307 309 310 308 306 303 301 301 301 302 305 306 307 307 306 306 309 308 309 314 316 313 306
358 354 356 355 346 340 346 346 339 345 351 340 336 338 337 338 343 342 339 338 336 336 336 335 336 334 331 333 334 329 328 327 324 322 321 319 319 317 315 313 312 314 315 311 306 305 304 303 302 304 305 306 309 312 312 313 314 313 313 317 322 321 315
356 351 352 350 337 330 340 347 341 347 354 343 339 341 340 341 344 344 343 342 339 340 339 338 338 335 333 336 334 327 326 328 329 332 332 329 328 326 325 325 322 320 318 315 315 317 314 310 311 314 313 313 316 318 319 322 324 325 327 328 329 328 322
348 345 346 349 343 336 343 349 345 349 355 345 340 342 342 343 347 348 349 346 341 341 341 339 339 337 337 338 334 330 330 330 331 334 330 327 330 331 330 330 326 323 323 321 321 321 320 320 324 324 318 318 320 318 319 324 327 327 327 326 326 327 322
351 348 345 349 350 347 350 352 346 347 352 344 339 341 342 345 351 354 354 349 344 343 341 339 340 341 342 341 338 337 335 333 335 335 330 328 329 330 330 331 329 330 330 325 322 324 326 327 326 323 323 326 325 320 319 322 323 321 318 316 318 321 317
360 356 353 355 355 354 357 355 345 345 348 341 338 341 343 348 355 359 356 351 349 347 340 338 340 341 342 342 341 341 340 338 339 340 337 334 334 332 332 333 334 337 336 331 329 329 328 328 327 328 333 336 334 330 327 327 325 319 314 313 315 315 312
1 360 360 358 356 356 357 352 343 343 344 339 339 344 347 349 354 355 351 350 351 348 338 336 338 338 338 339 340 341 342 340 339 341 342 342 342 340 338 336 338 343 342 338 337 334 331 333 336 337 338 337 335 334 333 332 329 323 316 314 314 314 313
3 3 1 356 353 353 353 349 344 345 344 339 339 345 347 346 348 347 344 346 348 344 336 335 337 336 336 338 339 340 341 340 339 341 344 345 345 346 345 341 343 347 343 339 341 341 338 339 340 339 336 333 329 328 329 330 328 323 319 319 321 324 327
5 2 357 353 350 349 351 353 351 350 348 342 340 344 344 342 342 341 340 342 343 340 336 338 338 336 337 340 340 340 341 342 341 341 342 344 347 350 350 348 347 350 348 343 345 349 348 342 340 337 334 331 328 326 327 327 325 322 321 324 329 334 335
6 360 356 355 353 351 353 354 353 352 351 345 343 345 344 340 340 341 341 340 342 341 339 338 337 336 338 341 341 340 340 342 343 339 339 344 348 350 352 351 348 351 351 342 339 344 345 340 338 337 335 334 334 331 330 329 326 324 326 329 331 333 334
1 357 359 0 360 358 355 352 353 353 350 349 348 346 343 343 345 345 344 344 345 345 341 338 337 338 339 341 342 340 340 343 344 341 339 343 345 346 349 345 340 343 346 337 332 336 339 339 341 340 337 336 337 335 333 331 328 327 327 327 328 329 330
1 2 6 5 3 2 358 355 355 353 350 351 350 345 346 351 351 348 348 350 350 346 343 341 339 338 339 340 340 339 341 344 345 343 341 340 340 340 340 337 335 338 338 335 335 339 342 344 346 345 342 341 341 337 332 327 325 327 331 333 335 335 332
13 12 11 7 3 2 359 356 355 354 352 352 349 348 354 360 356 351 354 355 350 346 346 345 341 339 340 340 339 340 343 344 344 343 342 341 341 339 334 334 340 343 337 335 339 345 346 346 347 351 355 355 348 340 335 331 332 340 348 350 348 344 338
27 15 10 6 1 360 358 355 354 354 353 351 350 352 359 2 356 352 354 354 348 345 345 345 343 340 339 339 339 341 343 343 343 344 344 344 345 343 338 337 342 344 341 340 341 342 342 345 348 355 3 5 360 352 346 345 349 356 357 355 353 349 341